Weather History for New Bedford, MA

Change the Weather History Date:

Saturday, November 2, 2013

  Actual Average Record
Temperature  
Mean Temperature 58 °F -  
Max Temperature 64 °F 61 °F 77 °F (1977)
Min Temperature 52 °F 44 °F 23 °F (2002)
Degree Days  
Heating Degree Days 7    
Growing Degree Days 8 (Base 50)    
Moisture  
Dew Point 49 °F    
Average Humidity 77    
Maximum Humidity 93    
Minimum Humidity 52    
Precipitation  
Precipitation 0.00 in - - ()
Sea Level Pressure  
Sea Level Pressure 29.65 in    
Wind  
Wind Speed 2 mph (SSW)    
Max Wind Speed 5 mph    
Max Gust Speed -    
Visibility 10 miles    
Events      
Averages and records for this station are not official NWS values.
T = Trace of Precipitation, MM = Missing Value Source: NWS Daily Summary

Daily Weather History Graph

Daily Weather History Graph

Search for Another Location

Airport:

Trip Planner

Search our weather history database for the weather conditions in past years. The results will help you decide how hot, cold, wet, or windy it might be!

Date:

Astronomy

Nov. 02, 2013 Rise Set
Actual Time 7:17 AM EDT 5:36 PM EDT
Civil Twilight 6:48 AM EDT 6:05 PM EDT
Nautical Twilight 6:15 AM EDT 6:38 PM EDT
Astronomical Twilight 5:43 AM EDT 7:11 PM EDT
Moon 6:10 AM EDT (11/2) 5:06 PM EDT (11/2)
Length of Visible Light 11h 17m
Length of Day
10h 19m
Waning Crescent, 1% of the Moon is Illuminated
Nov 2
Waning Crescent
Nov 3
New
Nov 10
First Quarter
Nov 17
Full
Nov 25
Last Quarter

Hourly Weather History & Observations

Time (EDT) Temp. Dew Point Humidity Pressure Visibility Wind Dir Wind Speed Gust Speed Precip Events Conditions
12:53 AM 59.0 °F 53.1 °F 81% 29.64 in 10.0 mi WSW 4.6 mph - N/A   Clear
1:53 AM 57.0 °F 53.1 °F 87% 29.66 in 10.0 mi Calm Calm - N/A   Clear
2:53 AM 55.9 °F 52.0 °F 87% 29.65 in 10.0 mi Calm Calm - N/A   Clear
3:53 AM 54.0 °F 52.0 °F 93% 29.67 in 10.0 mi Calm Calm - N/A   Overcast
4:53 AM 55.9 °F 48.9 °F 77% 29.67 in 10.0 mi Calm Calm - N/A   Overcast
5:53 AM 53.1 °F 50.0 °F 89% 29.68 in 10.0 mi Calm Calm - N/A   Overcast
6:53 AM 53.1 °F 50.0 °F 89% 29.67 in 10.0 mi Calm Calm - N/A   Overcast
7:53 AM 53.1 °F 51.1 °F 93% 29.67 in 10.0 mi Calm Calm - 0.00 in   Overcast
8:53 AM 55.9 °F 52.0 °F 87% 29.70 in 10.0 mi Calm Calm - 0.00 in   Overcast
9:53 AM 57.0 °F 48.9 °F 74% 29.66 in 10.0 mi SE 4.6 mph - N/A   Scattered Clouds
10:53 AM 59.0 °F 50.0 °F 72% 29.66 in 10.0 mi SSE 4.6 mph - N/A   Clear
11:53 AM 59.0 °F 51.1 °F 75% 29.65 in 10.0 mi SE 4.6 mph - N/A   Clear
12:53 PM 61.0 °F 48.9 °F 64% 29.61 in 10.0 mi Calm Calm - N/A   Clear
1:53 PM 62.1 °F 48.0 °F 60% 29.61 in 10.0 mi Calm Calm - N/A   Clear
2:53 PM 64.0 °F 48.0 °F 56% 29.60 in 10.0 mi SSE 3.5 mph - N/A   Clear
3:53 PM 64.0 °F 46.0 °F 52% 29.60 in 10.0 mi West 3.5 mph - N/A   Clear
4:53 PM 60.1 °F 50.0 °F 69% 29.61 in 10.0 mi SE 3.5 mph - N/A   Clear
5:53 PM 55.9 °F 50.0 °F 80% 29.60 in 10.0 mi Calm Calm - N/A   Clear
6:53 PM 57.0 °F 48.0 °F 72% 29.64 in 10.0 mi SW 3.5 mph - N/A   Clear
7:53 PM 54.0 °F 46.9 °F 77% 29.67 in 10.0 mi SSW 4.6 mph - N/A   Clear
8:53 PM 53.1 °F 46.9 °F 80% 29.68 in 10.0 mi SW 3.5 mph - N/A   Clear
9:53 PM 52.0 °F 46.9 °F 83% 29.70 in 10.0 mi West 4.6 mph - N/A   Clear
10:53 PM 55.9 °F 46.0 °F 69% 29.70 in 10.0 mi Calm Calm - N/A   Clear
11:53 PM 54.0 °F 45.0 °F 72% 29.71 in 10.0 mi Calm Calm - N/A   Clear